Time,TemperatureF,DewpointF,PressureIn,WindDirection,WindDirectionDegrees,WindSpeedMPH,WindSpeedGustMPH,Humidity,HourlyPrecipIn,Conditions,Clouds,dailyrainin,SoftwareType,DateUTC
2013-08-03 00:00:00,55.8,50.1,29.90,WSW,248,0.0,0.0,81,0.00,,,0.00,WUHU216HW,2013-08-03 07:00:00,
2013-08-03 00:05:00,55.8,50.1,29.90,WSW,248,0.0,0.0,81,0.00,,,0.00,WUHU216HW,2013-08-03 07:05:00,
2013-08-03 00:10:00,55.8,50.1,29.90,WSW,248,0.0,0.0,81,0.00,,,0.00,WUHU216HW,2013-08-03 07:10:00,
2013-08-03 00:15:00,55.6,49.9,29.90,WSW,248,0.0,0.4,81,0.00,,,0.00,WUHU216HW,2013-08-03 07:15:00,
2013-08-03 00:20:00,55.8,51.3,29.90,NW,315,0.0,0.4,85,0.00,,,0.00,WUHU216HW,2013-08-03 07:20:00,
2013-08-03 00:25:00,55.8,50.9,29.90,NW,315,0.0,0.2,84,0.00,,,0.00,WUHU216HW,2013-08-03 07:25:00,
2013-08-03 00:30:00,55.6,50.5,29.90,NW,315,0.0,0.2,83,0.00,,,0.00,WUHU216HW,2013-08-03 07:30:00,
2013-08-03 00:36:00,55.4,50.0,29.90,NW,315,0.0,0.0,82,0.00,,,0.00,WUHU216HW,2013-08-03 07:36:00,
2013-08-03 00:41:00,55.4,50.0,29.90,NW,315,0.0,0.0,82,0.00,,,0.00,WUHU216HW,2013-08-03 07:41:00,
2013-08-03 00:46:00,55.3,49.8,29.90,NW,315,0.0,0.0,82,0.00,,,0.00,WUHU216HW,2013-08-03 07:46:00,
2013-08-03 00:51:00,55.1,49.7,29.90,NW,315,0.0,0.0,82,0.00,,,0.00,WUHU216HW,2013-08-03 07:51:00,
2013-08-03 00:56:00,55.1,49.7,29.89,NW,315,0.0,0.2,82,0.00,,,0.00,WUHU216HW,2013-08-03 07:56:00,
2013-08-03 01:01:00,55.1,49.7,29.89,North,0,0.4,0.4,82,0.00,,,0.00,WUHU216HW,2013-08-03 08:01:00,
2013-08-03 01:06:00,55.1,49.7,29.89,North,0,0.0,0.4,82,0.00,,,0.00,WUHU216HW,2013-08-03 08:06:00,
2013-08-03 01:11:00,54.9,49.5,29.89,North,0,0.2,0.2,82,0.00,,,0.00,WUHU216HW,2013-08-03 08:11:00,
2013-08-03 01:16:00,54.9,49.5,29.89,North,0,0.2,0.2,82,0.00,,,0.00,WUHU216HW,2013-08-03 08:16:00,
2013-08-03 01:21:00,54.7,49.6,29.89,North,0,0.4,0.4,83,0.00,,,0.00,WUHU216HW,2013-08-03 08:21:00,
2013-08-03 01:26:00,54.5,49.4,29.89,ENE,68,0.2,0.9,83,0.00,,,0.00,WUHU216HW,2013-08-03 08:26:00,
2013-08-03 01:31:00,54.4,49.3,29.89,ESE,113,0.7,1.1,83,0.00,,,0.00,WUHU216HW,2013-08-03 08:31:00,
2013-08-03 01:36:00,54.4,49.3,29.89,ESE,113,0.0,1.1,83,0.00,,,0.00,WUHU216HW,2013-08-03 08:36:00,
2013-08-03 01:41:00,54.4,49.6,29.89,ESE,113,0.0,0.7,84,0.00,,,0.00,WUHU216HW,2013-08-03 08:41:00,
2013-08-03 01:47:00,54.4,49.6,29.89,SE,135,0.2,0.9,84,0.00,,,0.00,WUHU216HW,2013-08-03 08:47:00,
2013-08-03 01:52:00,54.4,49.6,29.89,SE,135,0.4,0.9,84,0.00,,,0.00,WUHU216HW,2013-08-03 08:52:00,
2013-08-03 01:57:00,54.2,49.4,29.88,SE,135,0.0,0.9,84,0.00,,,0.00,WUHU216HW,2013-08-03 08:57:00,
2013-08-03 02:02:00,54.2,49.4,29.88,SE,135,0.4,0.7,84,0.00,,,0.00,WUHU216HW,2013-08-03 09:02:00,
2013-08-03 02:07:00,54.0,49.2,29.89,SE,135,0.0,0.7,84,0.00,,,0.00,WUHU216HW,2013-08-03 09:07:00,
2013-08-03 02:12:00,54.0,49.2,29.89,SE,135,0.4,0.4,84,0.00,,,0.00,WUHU216HW,2013-08-03 09:12:00,
2013-08-03 02:17:00,54.0,49.2,29.89,SE,135,0.2,0.4,84,0.00,,,0.00,WUHU216HW,2013-08-03 09:17:00,
2013-08-03 02:22:00,54.0,49.2,29.89,SE,135,0.0,0.2,84,0.00,,,0.00,WUHU216HW,2013-08-03 09:22:00,
2013-08-03 02:27:00,54.0,49.6,29.89,SE,135,0.0,0.2,85,0.00,,,0.00,WUHU216HW,2013-08-03 09:27:00,
2013-08-03 02:32:00,53.8,49.4,29.89,SE,135,0.0,0.2,85,0.00,,,0.00,WUHU216HW,2013-08-03 09:32:00,
2013-08-03 02:37:00,53.8,49.4,29.89,SE,135,0.4,0.4,85,0.00,,,0.00,WUHU216HW,2013-08-03 09:37:00,
2013-08-03 02:42:00,53.6,49.2,29.89,SE,135,0.0,0.4,85,0.00,,,0.00,WUHU216HW,2013-08-03 09:42:00,
2013-08-03 02:47:00,53.6,49.2,29.89,SE,135,0.0,0.9,85,0.00,,,0.00,WUHU216HW,2013-08-03 09:47:00,
2013-08-03 02:52:00,53.6,49.2,29.89,SE,135,0.2,0.9,85,0.00,,,0.00,WUHU216HW,2013-08-03 09:52:00,
2013-08-03 02:58:00,53.6,49.2,29.89,SE,135,0.2,0.4,85,0.00,,,0.00,WUHU216HW,2013-08-03 09:58:00,
2013-08-03 03:02:00,53.6,49.2,29.89,SE,135,0.4,0.4,85,0.00,,,0.00,WUHU216HW,2013-08-03 10:02:00,
2013-08-03 03:08:00,53.5,49.1,29.89,SE,135,0.0,0.4,85,0.00,,,0.00,WUHU216HW,2013-08-03 10:08:00,
2013-08-03 03:13:00,53.6,49.2,29.89,SE,135,0.0,0.4,85,0.00,,,0.00,WUHU216HW,2013-08-03 10:13:00,
2013-08-03 03:18:00,53.6,49.2,29.89,SE,135,0.0,0.4,85,0.00,,,0.00,WUHU216HW,2013-08-03 10:18:00,
2013-08-03 03:23:00,53.6,49.5,29.89,SE,135,0.0,0.4,86,0.00,,,0.00,WUHU216HW,2013-08-03 10:23:00,
2013-08-03 03:28:00,53.6,49.5,29.89,SE,135,0.0,0.2,86,0.00,,,0.00,WUHU216HW,2013-08-03 10:28:00,
2013-08-03 03:33:00,53.6,49.5,29.88,SE,135,0.0,0.7,86,0.00,,,0.00,WUHU216HW,2013-08-03 10:33:00,
2013-08-03 03:38:00,53.6,49.5,29.89,SE,135,0.4,0.7,86,0.00,,,0.00,WUHU216HW,2013-08-03 10:38:00,
2013-08-03 03:43:00,53.6,49.5,29.89,SE,135,0.0,0.4,86,0.00,,,0.00,WUHU216HW,2013-08-03 10:43:00,
2013-08-03 03:48:00,53.8,49.7,29.89,SE,135,0.4,0.4,86,0.00,,,0.00,WUHU216HW,2013-08-03 10:48:00,
2013-08-03 03:53:00,54.0,49.9,29.89,SE,135,0.4,0.4,86,0.00,,,0.00,WUHU216HW,2013-08-03 10:53:00,
2013-08-03 03:58:00,54.0,49.9,29.89,SSE,158,0.2,0.4,86,0.00,,,0.00,WUHU216HW,2013-08-03 10:58:00,
2013-08-03 04:03:00,54.2,50.0,29.88,SSE,158,0.4,0.7,86,0.00,,,0.00,WUHU216HW,2013-08-03 11:03:00,
2013-08-03 04:08:00,54.4,50.2,29.89,SSE,158,0.4,0.7,86,0.00,,,0.00,WUHU216HW,2013-08-03 11:08:00,
2013-08-03 04:13:00,54.4,50.6,29.89,SSE,158,0.2,0.4,87,0.00,,,0.00,WUHU216HW,2013-08-03 11:13:00,
2013-08-03 04:18:00,54.5,50.8,29.89,SSE,158,0.2,0.4,87,0.00,,,0.00,WUHU216HW,2013-08-03 11:18:00,
2013-08-03 04:23:00,54.7,50.9,29.89,SE,135,1.1,2.2,87,0.00,,,0.00,WUHU216HW,2013-08-03 11:23:00,
2013-08-03 04:28:00,54.9,51.0,29.89,SSE,158,0.4,2.5,87,0.00,,,0.00,WUHU216HW,2013-08-03 11:28:00,
2013-08-03 04:33:00,55.1,51.0,29.89,SSW,203,0.9,2.5,86,0.00,,,0.00,WUHU216HW,2013-08-03 11:33:00,
2013-08-03 04:38:00,55.1,51.0,29.88,SSE,158,0.4,1.1,86,0.00,,,0.00,WUHU216HW,2013-08-03 11:38:00,
2013-08-03 04:43:00,55.1,51.0,29.89,SW,225,0.9,0.9,86,0.00,,,0.00,WUHU216HW,2013-08-03 11:43:00,
2013-08-03 04:48:00,55.1,51.0,29.88,SSE,158,1.8,1.8,86,0.00,,,0.00,WUHU216HW,2013-08-03 11:48:00,
2013-08-03 04:54:00,55.3,51.1,29.88,SE,135,1.3,1.8,86,0.00,,,0.00,WUHU216HW,2013-08-03 11:54:00,
2013-08-03 04:59:00,55.4,51.3,29.89,SSE,158,0.7,1.8,86,0.00,,,0.00,WUHU216HW,2013-08-03 11:59:00,
2013-08-03 05:04:00,55.4,51.3,29.89,SSE,158,0.4,1.6,86,0.00,,,0.00,WUHU216HW,2013-08-03 12:04:00,
2013-08-03 05:09:00,55.6,51.5,29.88,SSW,203,0.9,1.1,86,0.00,,,0.00,WUHU216HW,2013-08-03 12:09:00,
2013-08-03 05:14:00,55.8,51.7,29.89,SE,135,0.4,1.3,86,0.00,,,0.00,WUHU216HW,2013-08-03 12:14:00,
2013-08-03 05:19:00,55.8,51.7,29.89,SSE,158,0.4,1.3,86,0.00,,,0.00,WUHU216HW,2013-08-03 12:19:00,
2013-08-03 05:24:00,55.8,51.3,29.89,SSE,158,2.0,2.0,85,0.00,,,0.00,WUHU216HW,2013-08-03 12:24:00,
2013-08-03 05:29:00,55.8,51.3,29.89,SSW,203,1.1,2.0,85,0.00,,,0.00,WUHU216HW,2013-08-03 12:29:00,
2013-08-03 05:34:00,56.0,51.5,29.89,SE,135,0.7,2.0,85,0.00,,,0.00,WUHU216HW,2013-08-03 12:34:00,
2013-08-03 05:39:00,56.0,51.5,29.89,SSE,158,0.7,1.8,85,0.00,,,0.00,WUHU216HW,2013-08-03 12:39:00,
2013-08-03 05:44:00,56.0,51.5,29.89,SSW,203,1.3,1.8,85,0.00,,,0.00,WUHU216HW,2013-08-03 12:44:00,
2013-08-03 05:49:00,56.0,51.5,29.89,SSE,158,1.1,2.0,85,0.00,,,0.00,WUHU216HW,2013-08-03 12:49:00,
2013-08-03 05:54:00,56.0,51.1,29.89,SSW,203,0.2,2.0,84,0.00,,,0.00,WUHU216HW,2013-08-03 12:54:00,
2013-08-03 05:59:00,56.0,51.1,29.90,West,270,0.7,1.8,84,0.00,,,0.00,WUHU216HW,2013-08-03 12:59:00,
2013-08-03 06:05:00,55.8,50.9,29.90,SSE,158,1.1,3.4,84,0.00,,,0.00,WUHU216HW,2013-08-03 13:05:00,
2013-08-03 06:10:00,55.8,50.9,29.90,SSW,203,1.8,3.4,84,0.00,,,0.00,WUHU216HW,2013-08-03 13:10:00,
2013-08-03 06:14:00,55.8,50.9,29.90,South,180,0.9,2.0,84,0.00,,,0.00,WUHU216HW,2013-08-03 13:14:00,
2013-08-03 06:20:00,55.6,50.8,29.90,SSE,158,1.3,2.0,84,0.00,,,0.00,WUHU216HW,2013-08-03 13:20:00,
2013-08-03 06:25:00,55.6,50.8,29.90,SE,135,2.5,2.5,84,0.00,,,0.00,WUHU216HW,2013-08-03 13:25:00,
2013-08-03 06:30:00,55.4,50.6,29.90,SW,225,1.6,2.5,84,0.00,,,0.00,WUHU216HW,2013-08-03 13:30:00,
2013-08-03 06:35:00,55.4,50.6,29.90,South,180,0.9,2.0,84,0.00,,,0.00,WUHU216HW,2013-08-03 13:35:00,
2013-08-03 06:40:00,55.4,50.6,29.91,SE,135,1.1,3.4,84,0.00,,,0.00,WUHU216HW,2013-08-03 13:40:00,
2013-08-03 06:45:00,55.4,50.6,29.91,SE,135,4.7,4.7,84,0.00,,,0.00,WUHU216HW,2013-08-03 13:45:00,
2013-08-03 06:50:00,55.4,50.6,29.91,SSE,158,4.7,5.4,84,0.00,,,0.00,WUHU216HW,2013-08-03 13:50:00,
2013-08-03 06:55:00,55.6,51.1,29.91,SE,135,1.8,5.4,85,0.00,,,0.00,WUHU216HW,2013-08-03 13:55:00,
2013-08-03 07:00:00,55.6,51.1,29.91,ESE,113,1.6,3.8,85,0.00,,,0.00,WUHU216HW,2013-08-03 14:00:00,
2013-08-03 07:05:00,55.6,51.1,29.91,SSE,158,3.4,4.0,85,0.00,,,0.00,WUHU216HW,2013-08-03 14:05:00,
2013-08-03 07:10:00,55.8,51.3,29.91,SE,135,1.1,4.0,85,0.00,,,0.00,WUHU216HW,2013-08-03 14:10:00,
2013-08-03 07:15:00,55.8,51.3,29.91,ENE,68,2.9,5.1,85,0.00,,,0.00,WUHU216HW,2013-08-03 14:15:00,
2013-08-03 07:20:00,55.8,51.3,29.91,ESE,113,4.0,5.1,85,0.00,,,0.00,WUHU216HW,2013-08-03 14:20:00,
2013-08-03 07:25:00,56.0,51.5,29.91,SE,135,2.2,5.8,85,0.00,,,0.00,WUHU216HW,2013-08-03 14:25:00,
2013-08-03 07:30:00,56.2,51.7,29.92,SSE,158,1.8,5.8,85,0.00,,,0.00,WUHU216HW,2013-08-03 14:30:00,
2013-08-03 07:36:00,56.3,51.8,29.92,SE,135,4.0,5.4,85,0.00,,,0.00,WUHU216HW,2013-08-03 14:36:00,
2013-08-03 07:41:00,56.2,51.3,29.92,SE,135,2.2,5.4,84,0.00,,,0.00,WUHU216HW,2013-08-03 14:41:00,
2013-08-03 07:45:00,56.3,51.5,29.92,SE,135,1.6,5.8,84,0.00,,,0.00,WUHU216HW,2013-08-03 14:45:00,
2013-08-03 07:51:00,56.3,51.5,29.92,South,180,3.1,5.8,84,0.00,,,0.00,WUHU216HW,2013-08-03 14:51:00,
2013-08-03 07:55:00,56.5,51.7,29.93,South,180,1.8,4.7,84,0.00,,,0.00,WUHU216HW,2013-08-03 14:55:00,
2013-08-03 08:01:00,56.7,51.8,29.93,SE,135,3.4,4.9,84,0.00,,,0.00,WUHU216HW,2013-08-03 15:01:00,
2013-08-03 08:06:00,56.9,52.0,29.93,SE,135,4.7,4.9,84,0.00,,,0.00,WUHU216HW,2013-08-03 15:06:00,
2013-08-03 08:11:00,57.1,52.2,29.93,ESE,113,0.9,4.7,84,0.00,,,0.00,WUHU216HW,2013-08-03 15:11:00,
2013-08-03 08:16:00,57.2,52.4,29.93,SE,135,3.6,4.7,84,0.00,,,0.00,WUHU216HW,2013-08-03 15:16:00,
2013-08-03 08:21:00,57.4,52.6,29.93,SE,135,3.4,5.1,84,0.00,,,0.00,WUHU216HW,2013-08-03 15:21:00,
2013-08-03 08:26:00,57.6,52.5,29.93,SSE,158,0.4,5.1,83,0.00,,,0.00,WUHU216HW,2013-08-03 15:26:00,
2013-08-03 08:31:00,57.6,52.5,29.93,SSW,203,0.4,3.8,83,0.00,,,0.00,WUHU216HW,2013-08-03 15:31:00,
2013-08-03 08:37:00,57.8,52.7,29.93,East,90,3.4,3.6,83,0.00,,,0.00,WUHU216HW,2013-08-03 15:37:00,
2013-08-03 08:42:00,58.0,52.8,29.93,SE,135,2.7,4.0,83,0.00,,,0.00,WUHU216HW,2013-08-03 15:42:00,
2013-08-03 08:47:00,58.1,53.0,29.94,SE,135,3.8,5.4,83,0.00,,,0.00,WUHU216HW,2013-08-03 15:47:00,
2013-08-03 08:52:00,58.3,52.8,29.93,SSW,203,2.2,5.4,82,0.00,,,0.00,WUHU216HW,2013-08-03 15:52:00,
2013-08-03 08:57:00,58.5,53.0,29.93,East,90,0.7,4.0,82,0.00,,,0.00,WUHU216HW,2013-08-03 15:57:00,
2013-08-03 09:02:00,58.7,53.2,29.93,SW,225,1.1,3.6,82,0.00,,,0.00,WUHU216HW,2013-08-03 16:02:00,
2013-08-03 09:07:00,59.0,53.3,29.93,SE,135,3.4,3.6,81,0.00,,,0.00,WUHU216HW,2013-08-03 16:07:00,
2013-08-03 09:12:00,59.4,53.7,29.93,North,0,1.8,6.7,81,0.00,,,0.00,WUHU216HW,2013-08-03 16:12:00,
2013-08-03 09:17:00,59.4,53.3,29.93,SE,135,3.8,6.7,80,0.00,,,0.00,WUHU216HW,2013-08-03 16:17:00,
2013-08-03 09:22:00,59.4,52.9,29.93,SW,225,1.1,5.8,79,0.00,,,0.00,WUHU216HW,2013-08-03 16:22:00,
2013-08-03 09:27:00,59.6,53.1,29.93,SW,225,3.4,3.4,79,0.00,,,0.00,WUHU216HW,2013-08-03 16:27:00,
2013-08-03 09:32:00,59.8,53.3,29.93,SE,135,1.6,5.4,79,0.00,,,0.00,WUHU216HW,2013-08-03 16:32:00,
2013-08-03 09:37:00,59.9,53.5,29.93,SE,135,1.1,5.4,79,0.00,,,0.00,WUHU216HW,2013-08-03 16:37:00,
2013-08-03 09:42:00,60.5,54.0,29.93,West,270,1.3,2.2,79,0.00,,,0.00,WUHU216HW,2013-08-03 16:42:00,
2013-08-03 09:47:00,60.7,53.8,29.93,ESE,113,0.7,3.4,78,0.00,,,0.00,WUHU216HW,2013-08-03 16:47:00,
2013-08-03 09:52:00,60.8,54.0,29.93,ENE,68,2.9,3.4,78,0.00,,,0.00,WUHU216HW,2013-08-03 16:52:00,
2013-08-03 09:57:00,61.2,54.4,29.93,SSW,203,1.8,3.1,78,0.00,,,0.00,WUHU216HW,2013-08-03 16:57:00,
2013-08-03 10:02:00,61.6,54.3,29.93,South,180,2.5,4.7,77,0.00,,,0.00,WUHU216HW,2013-08-03 17:02:00,
2013-08-03 10:07:00,62.1,54.5,29.92,SW,225,1.3,4.7,76,0.00,,,0.00,WUHU216HW,2013-08-03 17:07:00,
2013-08-03 10:13:00,62.3,54.5,29.92,WSW,248,2.2,2.5,76,0.00,,,0.00,WUHU216HW,2013-08-03 17:13:00,
2013-08-03 10:18:00,62.6,54.9,29.92,SSW,203,1.1,2.5,76,0.00,,,0.00,WUHU216HW,2013-08-03 17:18:00,
2013-08-03 10:23:00,63.4,55.6,29.93,SW,225,1.3,4.5,76,0.00,,,0.00,WUHU216HW,2013-08-03 17:23:00,
2013-08-03 10:28:00,63.4,55.3,29.92,WSW,248,3.1,4.5,75,0.00,,,0.00,WUHU216HW,2013-08-03 17:28:00,
2013-08-03 10:33:00,63.4,54.2,29.92,SW,225,1.1,3.6,72,0.00,,,0.00,WUHU216HW,2013-08-03 17:33:00,
2013-08-03 10:38:00,63.4,54.9,29.92,SE,135,2.0,4.3,74,0.00,,,0.00,WUHU216HW,2013-08-03 17:38:00,
2013-08-03 10:43:00,63.9,54.4,29.92,WSW,248,2.5,4.3,71,0.00,,,0.00,WUHU216HW,2013-08-03 17:43:00,
2013-08-03 10:48:00,64.1,55.3,29.92,SSW,203,1.3,4.7,73,0.00,,,0.00,WUHU216HW,2013-08-03 17:48:00,
2013-08-03 10:53:00,64.6,55.8,29.92,East,90,0.9,4.7,73,0.00,,,0.00,WUHU216HW,2013-08-03 17:53:00,
2013-08-03 10:58:00,65.3,56.4,29.92,West,270,1.8,4.3,73,0.00,,,0.00,WUHU216HW,2013-08-03 17:58:00,
2013-08-03 11:03:00,65.5,55.9,29.92,SSE,158,0.4,2.0,71,0.00,,,0.00,WUHU216HW,2013-08-03 18:03:00,
2013-08-03 11:08:00,65.7,55.3,29.92,SW,225,2.5,2.5,69,0.00,,,0.00,WUHU216HW,2013-08-03 18:08:00,
2013-08-03 11:13:00,66.2,56.2,29.92,SW,225,2.9,3.4,70,0.00,,,0.00,WUHU216HW,2013-08-03 18:13:00,
2013-08-03 11:18:00,67.0,56.4,29.92,WSW,248,1.8,5.1,69,0.00,,,0.00,WUHU216HW,2013-08-03 18:18:00,
2013-08-03 11:23:00,67.3,55.1,29.92,SW,225,2.7,5.1,65,0.00,,,0.00,WUHU216HW,2013-08-03 18:23:00,
2013-08-03 11:28:00,67.3,55.5,29.92,NE,45,2.0,3.1,66,0.00,,,0.00,WUHU216HW,2013-08-03 18:28:00,
2013-08-03 11:33:00,68.0,56.7,29.91,ESE,113,0.4,2.9,67,0.00,,,0.00,WUHU216HW,2013-08-03 18:33:00,
2013-08-03 11:39:00,68.8,56.9,29.91,SSE,158,1.6,2.5,66,0.00,,,0.00,WUHU216HW,2013-08-03 18:39:00,
2013-08-03 11:44:00,69.3,57.0,29.91,WSW,248,0.7,4.0,65,0.00,,,0.00,WUHU216HW,2013-08-03 18:44:00,
2013-08-03 11:49:00,69.3,55.4,29.91,SW,225,2.5,4.0,61,0.00,,,0.00,WUHU216HW,2013-08-03 18:49:00,
2013-08-03 11:54:00,69.5,55.9,29.91,SW,225,2.9,2.9,62,0.00,,,0.00,WUHU216HW,2013-08-03 18:54:00,
2013-08-03 11:59:00,69.8,56.3,29.91,WSW,248,2.5,2.9,62,0.00,,,0.00,WUHU216HW,2013-08-03 18:59:00,
2013-08-03 12:04:00,70.6,56.1,29.91,WSW,248,2.5,3.1,60,0.00,,,0.00,WUHU216HW,2013-08-03 19:04:00,
2013-08-03 12:09:00,70.4,55.9,29.91,SW,225,0.4,3.4,60,0.00,,,0.00,WUHU216HW,2013-08-03 19:09:00,
2013-08-03 12:14:00,70.4,55.5,29.91,WNW,293,3.4,3.4,59,0.00,,,0.00,WUHU216HW,2013-08-03 19:14:00,
2013-08-03 12:19:00,70.7,56.3,29.91,WSW,248,0.4,4.3,60,0.00,,,0.00,WUHU216HW,2013-08-03 19:19:00,
2013-08-03 12:24:00,71.1,56.1,29.91,NW,315,1.1,4.3,59,0.00,,,0.00,WUHU216HW,2013-08-03 19:24:00,
2013-08-03 12:29:00,70.9,55.9,29.91,WNW,293,2.5,2.7,59,0.00,,,0.00,WUHU216HW,2013-08-03 19:29:00,
2013-08-03 12:34:00,71.5,56.9,29.91,WSW,248,2.5,2.7,60,0.00,,,0.00,WUHU216HW,2013-08-03 19:34:00,
2013-08-03 12:39:00,72.0,56.3,29.91,WSW,248,2.7,4.7,58,0.00,,,0.00,WUHU216HW,2013-08-03 19:39:00,
2013-08-03 12:45:00,72.0,56.3,29.91,SW,225,3.4,4.7,58,0.00,,,0.00,WUHU216HW,2013-08-03 19:45:00,
2013-08-03 12:49:00,72.4,56.7,29.91,WNW,293,2.7,4.0,58,0.00,,,0.00,WUHU216HW,2013-08-03 19:49:00,
2013-08-03 12:55:00,72.5,56.9,29.90,NW,315,0.9,4.5,58,0.00,,,0.00,WUHU216HW,2013-08-03 19:55:00,
2013-08-03 13:00:00,72.7,56.5,29.90,WNW,293,3.1,4.5,57,0.00,,,0.00,WUHU216HW,2013-08-03 20:00:00,
2013-08-03 13:05:00,72.7,56.5,29.90,WNW,293,2.5,3.1,57,0.00,,,0.00,WUHU216HW,2013-08-03 20:05:00,
2013-08-03 13:10:00,72.7,56.5,29.90,WSW,248,3.4,4.0,57,0.00,,,0.00,WUHU216HW,2013-08-03 20:10:00,
2013-08-03 13:15:00,73.3,56.5,29.90,West,270,2.5,4.0,56,0.00,,,0.00,WUHU216HW,2013-08-03 20:15:00,
2013-08-03 13:20:00,73.8,57.5,29.90,WSW,248,1.6,2.9,57,0.00,,,0.00,WUHU216HW,2013-08-03 20:20:00,
2013-08-03 13:25:00,73.8,56.0,29.90,SW,225,1.1,4.0,54,0.00,,,0.00,WUHU216HW,2013-08-03 20:25:00,
2013-08-03 13:30:00,74.5,57.2,29.89,West,270,1.8,4.0,55,0.00,,,0.00,WUHU216HW,2013-08-03 20:30:00,
2013-08-03 13:35:00,74.9,57.6,29.89,WSW,248,3.6,3.6,55,0.00,,,0.00,WUHU216HW,2013-08-03 20:35:00,
2013-08-03 13:40:00,75.6,57.8,29.89,WNW,293,1.3,3.6,54,0.00,,,0.00,WUHU216HW,2013-08-03 20:40:00,
2013-08-03 13:45:00,76.0,57.6,29.89,NW,315,1.6,3.4,53,0.00,,,0.00,WUHU216HW,2013-08-03 20:45:00,
2013-08-03 13:50:00,76.0,58.2,29.89,NNW,338,0.2,2.5,54,0.00,,,0.00,WUHU216HW,2013-08-03 20:50:00,
2013-08-03 13:55:00,75.4,57.2,29.89,West,270,2.0,3.1,53,0.00,,,0.00,WUHU216HW,2013-08-03 20:55:00,
2013-08-03 14:00:00,76.0,58.2,29.89,WSW,248,2.9,3.1,54,0.00,,,0.00,WUHU216HW,2013-08-03 21:00:00,
2013-08-03 14:06:00,76.3,58.4,29.89,WSW,248,1.1,3.1,54,0.00,,,0.00,WUHU216HW,2013-08-03 21:06:00,
2013-08-03 14:11:00,76.5,57.6,29.89,WNW,293,0.4,3.8,52,0.00,,,0.00,WUHU216HW,2013-08-03 21:11:00,
2013-08-03 14:16:00,76.0,57.1,29.89,WNW,293,0.4,2.9,52,0.00,,,0.00,WUHU216HW,2013-08-03 21:16:00,
2013-08-03 14:21:00,76.3,58.4,29.89,WNW,293,0.9,3.1,54,0.00,,,0.00,WUHU216HW,2013-08-03 21:21:00,
2013-08-03 14:26:00,77.0,59.0,29.89,SW,225,0.4,3.1,54,0.00,,,0.00,WUHU216HW,2013-08-03 21:26:00,
2013-08-03 14:31:00,77.2,58.2,29.89,North,0,1.8,3.4,52,0.00,,,0.00,WUHU216HW,2013-08-03 21:31:00,
2013-08-03 14:37:00,76.3,58.0,29.88,WNW,293,1.1,3.4,53,0.00,,,0.00,WUHU216HW,2013-08-03 21:37:00,
2013-08-03 14:42:00,76.5,57.6,29.88,NNW,338,2.5,3.4,52,0.00,,,0.00,WUHU216HW,2013-08-03 21:42:00,
2013-08-03 14:47:00,76.5,58.6,29.88,NNW,338,2.7,4.0,54,0.00,,,0.00,WUHU216HW,2013-08-03 21:47:00,
2013-08-03 14:52:00,76.1,58.2,29.88,West,270,2.0,4.0,54,0.00,,,0.00,WUHU216HW,2013-08-03 21:52:00,
2013-08-03 14:57:00,76.7,58.2,29.88,West,270,2.2,3.6,53,0.00,,,0.00,WUHU216HW,2013-08-03 21:57:00,
2013-08-03 15:02:00,77.4,58.4,29.88,SW,225,1.1,3.4,52,0.00,,,0.00,WUHU216HW,2013-08-03 22:02:00,
2013-08-03 15:07:00,77.0,58.6,29.88,WNW,293,1.3,3.1,53,0.00,,,0.00,WUHU216HW,2013-08-03 22:07:00,
2013-08-03 15:12:00,77.6,58.6,29.87,WNW,293,1.3,2.9,52,0.00,,,0.00,WUHU216HW,2013-08-03 22:12:00,
2013-08-03 15:17:00,77.9,58.9,29.87,WNW,293,2.0,3.4,52,0.00,,,0.00,WUHU216HW,2013-08-03 22:17:00,
2013-08-03 15:22:00,77.8,58.2,29.87,WSW,248,3.4,3.4,51,0.00,,,0.00,WUHU216HW,2013-08-03 22:22:00,
2013-08-03 15:27:00,78.1,58.6,29.87,WSW,248,2.5,3.4,51,0.00,,,0.00,WUHU216HW,2013-08-03 22:27:00,
2013-08-03 15:32:00,78.5,58.3,29.87,WNW,293,2.0,2.9,50,0.00,,,0.00,WUHU216HW,2013-08-03 22:32:00,
2013-08-03 15:37:00,78.7,58.5,29.87,WSW,248,1.6,3.8,50,0.00,,,0.00,WUHU216HW,2013-08-03 22:37:00,
2013-08-03 15:42:00,79.0,58.9,29.86,WSW,248,1.8,3.8,50,0.00,,,0.00,WUHU216HW,2013-08-03 22:42:00,
2013-08-03 15:47:00,79.6,58.7,29.86,WSW,248,1.8,3.1,49,0.00,,,0.00,WUHU216HW,2013-08-03 22:47:00,
2013-08-03 15:52:00,79.6,58.2,29.86,West,270,0.9,3.4,48,0.00,,,0.00,WUHU216HW,2013-08-03 22:52:00,
2013-08-03 15:57:00,79.2,57.8,29.86,West,270,3.8,3.8,48,0.00,,,0.00,WUHU216HW,2013-08-03 22:57:00,
2013-08-03 16:02:00,79.0,58.2,29.86,WSW,248,1.8,3.8,49,0.00,,,0.00,WUHU216HW,2013-08-03 23:02:00,
2013-08-03 16:07:00,79.7,58.9,29.86,WSW,248,1.8,4.7,49,0.00,,,0.00,WUHU216HW,2013-08-03 23:07:00,
2013-08-03 16:12:00,79.7,58.2,29.86,West,270,2.2,4.7,48,0.00,,,0.00,WUHU216HW,2013-08-03 23:12:00,
2013-08-03 16:17:00,79.6,59.3,29.86,SW,225,1.6,3.6,50,0.00,,,0.00,WUHU216HW,2013-08-03 23:17:00,
2013-08-03 16:23:00,79.2,58.4,29.86,WSW,248,3.4,4.3,49,0.00,,,0.00,WUHU216HW,2013-08-03 23:23:00,
2013-08-03 16:28:00,79.0,58.2,29.86,West,270,2.9,3.4,49,0.00,,,0.00,WUHU216HW,2013-08-03 23:28:00,
2013-08-03 16:33:00,79.9,59.7,29.86,West,270,2.2,3.4,50,0.00,,,0.00,WUHU216HW,2013-08-03 23:33:00,
2013-08-03 16:38:00,81.4,59.8,29.86,WSW,248,1.1,2.7,48,0.00,,,0.00,WUHU216HW,2013-08-03 23:38:00,
2013-08-03 16:43:00,83.5,60.5,29.86,NW,315,1.3,3.8,46,0.00,,,0.00,WUHU216HW,2013-08-03 23:43:00,
2013-08-03 16:48:00,84.6,60.3,29.85,SSW,203,4.7,4.7,44,0.00,,,0.00,WUHU216HW,2013-08-03 23:48:00,
2013-08-03 16:53:00,84.4,60.1,29.85,NW,315,2.0,4.7,44,0.00,,,0.00,WUHU216HW,2013-08-03 23:53:00,
2013-08-03 16:58:00,84.6,59.7,29.86,NW,315,0.9,3.1,43,0.00,,,0.00,WUHU216HW,2013-08-03 23:58:00,
2013-08-03 17:03:00,84.2,59.3,29.85,SSW,203,5.1,5.1,43,0.00,,,0.00,WUHU216HW,2013-08-04 00:03:00,
2013-08-03 17:08:00,85.9,62.6,29.85,NW,315,1.1,5.1,46,0.00,,,0.00,WUHU216HW,2013-08-04 00:08:00,
2013-08-03 17:13:00,87.8,61.9,29.85,South,180,2.5,3.4,42,0.00,,,0.00,WUHU216HW,2013-08-04 00:13:00,
2013-08-03 17:18:00,87.8,61.3,29.85,WSW,248,1.8,3.1,41,0.00,,,0.00,WUHU216HW,2013-08-04 00:18:00,
2013-08-03 17:23:00,87.8,61.9,29.85,West,270,2.0,2.0,42,0.00,,,0.00,WUHU216HW,2013-08-04 00:23:00,
2013-08-03 17:28:00,88.4,60.3,29.85,WNW,293,2.7,2.7,39,0.00,,,0.00,WUHU216HW,2013-08-04 00:28:00,
2013-08-03 17:33:00,87.8,60.7,29.85,South,180,3.4,3.4,40,0.00,,,0.00,WUHU216HW,2013-08-04 00:33:00,
2013-08-03 17:38:00,87.1,60.0,29.85,WSW,248,1.6,3.4,40,0.00,,,0.00,WUHU216HW,2013-08-04 00:38:00,
2013-08-03 17:43:00,86.8,60.3,29.85,West,270,1.8,3.6,41,0.00,,,0.00,WUHU216HW,2013-08-04 00:43:00,
2013-08-03 17:49:00,85.5,58.6,29.85,NW,315,1.6,3.6,40,0.00,,,0.00,WUHU216HW,2013-08-04 00:49:00,
2013-08-03 17:54:00,85.9,58.9,29.84,NNW,338,2.0,2.5,40,0.00,,,0.00,WUHU216HW,2013-08-04 00:54:00,
2013-08-03 17:59:00,83.3,57.9,29.84,WNW,293,1.3,2.5,42,0.00,,,0.00,WUHU216HW,2013-08-04 00:59:00,
2013-08-03 18:04:00,83.2,58.3,29.84,West,270,2.9,2.9,43,0.00,,,0.00,WUHU216HW,2013-08-04 01:04:00,
2013-08-03 18:09:00,83.9,59.0,29.84,NW,315,1.1,2.9,43,0.00,,,0.00,WUHU216HW,2013-08-04 01:09:00,
2013-08-03 18:14:00,85.1,58.9,29.84,WNW,293,2.5,2.5,41,0.00,,,0.00,WUHU216HW,2013-08-04 01:14:00,
2013-08-03 18:19:00,85.3,58.4,29.84,NNW,338,1.8,2.5,40,0.00,,,0.00,WUHU216HW,2013-08-04 01:19:00,
2013-08-03 18:24:00,83.7,58.1,29.84,West,270,1.6,1.8,42,0.00,,,0.00,WUHU216HW,2013-08-04 01:24:00,
2013-08-03 18:29:00,83.5,58.1,29.84,West,270,1.8,2.0,42,0.00,,,0.00,WUHU216HW,2013-08-04 01:29:00,
2013-08-03 18:34:00,80.5,57.1,29.85,NW,315,1.8,2.2,45,0.00,,,0.00,WUHU216HW,2013-08-04 01:34:00,
2013-08-03 18:39:00,77.9,57.2,29.84,WSW,248,2.5,2.5,49,0.00,,,0.00,WUHU216HW,2013-08-04 01:39:00,
2013-08-03 18:44:00,76.9,56.9,29.84,West,270,0.4,2.5,50,0.00,,,0.00,WUHU216HW,2013-08-04 01:44:00,
2013-08-03 18:49:00,76.1,56.8,29.84,West,270,1.1,3.1,51,0.00,,,0.00,WUHU216HW,2013-08-04 01:49:00,
2013-08-03 18:54:00,75.8,57.0,29.85,WNW,293,2.9,3.4,52,0.00,,,0.00,WUHU216HW,2013-08-04 01:54:00,
2013-08-03 19:00:00,75.2,56.4,29.84,SW,225,1.8,3.4,52,0.00,,,0.00,WUHU216HW,2013-08-04 02:00:00,
2013-08-03 19:05:00,74.9,56.6,29.84,West,270,1.8,3.4,53,0.00,,,0.00,WUHU216HW,2013-08-04 02:05:00,
2013-08-03 19:10:00,74.2,56.3,29.85,NW,315,0.2,1.8,54,0.00,,,0.00,WUHU216HW,2013-08-04 02:10:00,
2013-08-03 19:15:00,74.2,56.9,29.85,SW,225,2.0,2.0,55,0.00,,,0.00,WUHU216HW,2013-08-04 02:15:00,
2013-08-03 19:20:00,74.9,57.1,29.85,NW,315,0.2,2.0,54,0.00,,,0.00,WUHU216HW,2013-08-04 02:20:00,
2013-08-03 19:25:00,75.2,57.0,29.85,WSW,248,1.6,1.6,53,0.00,,,0.00,WUHU216HW,2013-08-04 02:25:00,
2013-08-03 19:30:00,74.9,56.6,29.85,NW,315,1.1,1.8,53,0.00,,,0.00,WUHU216HW,2013-08-04 02:30:00,
2013-08-03 19:35:00,74.2,56.3,29.85,West,270,0.7,1.8,54,0.00,,,0.00,WUHU216HW,2013-08-04 02:35:00,
2013-08-03 19:40:00,72.5,55.9,29.85,NW,315,0.2,1.8,56,0.00,,,0.00,WUHU216HW,2013-08-04 02:40:00,
2013-08-03 19:45:00,71.3,55.7,29.85,NW,315,1.1,1.3,58,0.00,,,0.00,WUHU216HW,2013-08-04 02:45:00,
2013-08-03 19:50:00,70.4,55.5,29.85,NW,315,0.4,1.1,59,0.00,,,0.00,WUHU216HW,2013-08-04 02:50:00,
2013-08-03 19:55:00,70.2,55.8,29.85,West,270,0.4,1.1,60,0.00,,,0.00,WUHU216HW,2013-08-04 02:55:00,
2013-08-03 20:00:00,69.8,55.4,29.86,NW,315,0.0,2.5,60,0.00,,,0.00,WUHU216HW,2013-08-04 03:00:00,
2013-08-03 20:05:00,69.5,55.1,29.86,West,270,0.4,2.5,60,0.00,,,0.00,WUHU216HW,2013-08-04 03:05:00,
2013-08-03 20:10:00,69.1,55.2,29.86,WNW,293,0.2,1.1,61,0.00,,,0.00,WUHU216HW,2013-08-04 03:10:00,
2013-08-03 20:16:00,68.8,55.2,29.86,WNW,293,0.0,1.6,62,0.00,,,0.00,WUHU216HW,2013-08-04 03:16:00,
2013-08-03 20:20:00,68.0,54.9,29.86,NW,315,0.9,1.6,63,0.00,,,0.00,WUHU216HW,2013-08-04 03:20:00,
2013-08-03 20:25:00,67.9,55.2,29.86,WNW,293,0.4,1.6,64,0.00,,,0.00,WUHU216HW,2013-08-04 03:25:00,
2013-08-03 20:31:00,67.5,54.9,29.86,WNW,293,0.0,1.6,64,0.00,,,0.00,WUHU216HW,2013-08-04 03:31:00,
2013-08-03 20:36:00,67.0,55.2,29.87,NNW,338,1.6,1.6,66,0.00,,,0.00,WUHU216HW,2013-08-04 03:36:00,
2013-08-03 20:41:00,65.9,55.0,29.87,NW,315,0.7,1.6,68,0.00,,,0.00,WUHU216HW,2013-08-04 03:41:00,
2013-08-03 20:46:00,65.3,55.4,29.87,NNW,338,1.8,1.8,70,0.00,,,0.00,WUHU216HW,2013-08-04 03:46:00,
2013-08-03 20:51:00,65.2,55.2,29.87,NW,315,0.7,1.8,70,0.00,,,0.00,WUHU216HW,2013-08-04 03:51:00,
2013-08-03 20:56:00,65.0,55.0,29.88,NW,315,0.2,1.3,70,0.00,,,0.00,WUHU216HW,2013-08-04 03:56:00,
2013-08-03 21:01:00,64.3,55.1,29.88,NNW,338,0.0,1.1,72,0.00,,,0.00,WUHU216HW,2013-08-04 04:01:00,
2013-08-03 21:02:00,64.3,55.1,29.88,NW,315,1.3,1.3,72,0.00,,,0.00,WUHU216HW,2013-08-04 04:02:00,
2013-08-03 21:07:00,63.7,54.5,29.88,NW,315,0.2,1.3,72,0.00,,,0.00,WUHU216HW,2013-08-04 04:07:00,
2013-08-03 21:12:00,63.5,54.4,29.88,West,270,1.1,1.3,72,0.00,,,0.00,WUHU216HW,2013-08-04 04:12:00,
2013-08-03 21:17:00,63.4,54.5,29.89,West,270,1.3,1.3,73,0.00,,,0.00,WUHU216HW,2013-08-04 04:17:00,
2013-08-03 21:22:00,63.0,54.2,29.89,West,270,0.4,1.6,73,0.00,,,0.00,WUHU216HW,2013-08-04 04:22:00,
2013-08-03 21:27:00,62.8,54.0,29.89,West,270,0.7,1.6,73,0.00,,,0.00,WUHU216HW,2013-08-04 04:27:00,
2013-08-03 21:33:00,62.6,53.8,29.89,WNW,293,1.1,1.1,73,0.00,,,0.00,WUHU216HW,2013-08-04 04:33:00,
2013-08-03 21:38:00,62.3,53.5,29.89,WSW,248,0.4,1.1,73,0.00,,,0.00,WUHU216HW,2013-08-04 04:38:00,
2013-08-03 21:43:00,62.1,53.4,29.90,West,270,0.7,1.1,73,0.00,,,0.00,WUHU216HW,2013-08-04 04:43:00,
2013-08-03 21:48:00,61.7,53.0,29.90,WSW,248,1.1,1.1,73,0.00,,,0.00,WUHU216HW,2013-08-04 04:48:00,
2013-08-03 21:53:00,61.6,52.8,29.90,West,270,0.7,1.1,73,0.00,,,0.00,WUHU216HW,2013-08-04 04:53:00,
2013-08-03 21:58:00,61.4,52.7,29.90,West,270,0.0,0.7,73,0.00,,,0.00,WUHU216HW,2013-08-04 04:58:00,
2013-08-03 22:03:00,61.2,52.6,29.91,West,270,0.0,0.7,73,0.00,,,0.00,WUHU216HW,2013-08-04 05:03:00,
2013-08-03 22:08:00,60.8,52.2,29.91,West,270,0.2,0.4,73,0.00,,,0.00,WUHU216HW,2013-08-04 05:08:00,
2013-08-03 22:13:00,60.8,52.9,29.91,West,270,0.4,1.1,75,0.00,,,0.00,WUHU216HW,2013-08-04 05:13:00,
2013-08-03 22:18:00,60.7,53.1,29.91,WNW,293,0.7,1.1,76,0.00,,,0.00,WUHU216HW,2013-08-04 05:18:00,
2013-08-03 22:23:00,60.5,52.9,29.90,West,270,0.4,1.1,76,0.00,,,0.00,WUHU216HW,2013-08-04 05:23:00,
2013-08-03 22:28:00,60.3,52.7,29.91,West,270,0.4,0.9,76,0.00,,,0.00,WUHU216HW,2013-08-04 05:28:00,
2013-08-03 22:33:00,60.1,52.6,29.91,West,270,0.4,0.9,76,0.00,,,0.00,WUHU216HW,2013-08-04 05:33:00,
2013-08-03 22:38:00,59.9,52.4,29.91,West,270,0.0,0.4,76,0.00,,,0.00,WUHU216HW,2013-08-04 05:38:00,
2013-08-03 22:43:00,59.8,51.8,29.91,West,270,0.0,0.4,75,0.00,,,0.00,WUHU216HW,2013-08-04 05:43:00,
2013-08-03 22:49:00,59.4,51.8,29.91,West,270,0.4,0.7,76,0.00,,,0.00,WUHU216HW,2013-08-04 05:49:00,
2013-08-03 22:54:00,59.2,51.7,29.91,West,270,0.4,0.7,76,0.00,,,0.00,WUHU216HW,2013-08-04 05:54:00,
2013-08-03 22:59:00,59.0,51.8,29.91,West,270,0.0,0.4,77,0.00,,,0.00,WUHU216HW,2013-08-04 05:59:00,
2013-08-03 23:04:00,58.7,51.8,29.91,WSW,248,0.9,0.9,78,0.00,,,0.00,WUHU216HW,2013-08-04 06:04:00,
2013-08-03 23:09:00,58.5,52.0,29.91,WSW,248,0.9,2.0,79,0.00,,,0.00,WUHU216HW,2013-08-04 06:09:00,
2013-08-03 23:14:00,58.3,51.8,29.91,West,270,0.2,2.0,79,0.00,,,0.00,WUHU216HW,2013-08-04 06:14:00,
2013-08-03 23:19:00,58.1,52.0,29.92,West,270,0.4,1.1,80,0.00,,,0.00,WUHU216HW,2013-08-04 06:19:00,
2013-08-03 23:24:00,58.0,51.8,29.92,West,270,1.8,1.8,80,0.00,,,0.00,WUHU216HW,2013-08-04 06:24:00,
2013-08-03 23:29:00,58.0,52.2,29.92,NW,315,0.4,1.8,81,0.00,,,0.00,WUHU216HW,2013-08-04 06:29:00,
2013-08-03 23:34:00,57.6,52.5,29.92,NW,315,0.0,0.4,83,0.00,,,0.00,WUHU216HW,2013-08-04 06:34:00,
2013-08-03 23:39:00,57.2,51.5,29.92,NW,315,0.0,0.2,81,0.00,,,0.00,WUHU216HW,2013-08-04 06:39:00,
2013-08-03 23:44:00,57.2,51.5,29.92,West,270,0.2,0.2,81,0.00,,,0.00,WUHU216HW,2013-08-04 06:44:00,
2013-08-03 23:49:00,57.1,51.6,29.92,West,270,0.0,0.4,82,0.00,,,0.00,WUHU216HW,2013-08-04 06:49:00,
2013-08-03 23:54:00,57.1,51.3,29.92,West,270,0.0,0.4,81,0.00,,,0.00,WUHU216HW,2013-08-04 06:54:00,
2013-08-03 23:59:00,56.9,51.4,29.92,West,270,0.0,0.4,82,0.00,,,0.00,WUHU216HW,2013-08-04 06:59:00,